This demonstration page uses our WeatherBlox Daily Observations layout. Learn more.

Left ArrowRight Arrow

Hourly Observations for June 4, 2018

Temp ( °F °C ) Dew Point ( °F °C ) Humidity (%) Winds ( mph kmh ) Pressure ( in mb ) Visibility ( mi km ) Precip ( " mm )
12:53 am 00:53 Clear 66 18.9 47 8.3 50 50 ESE 7 11 30.04 1017 10 16 0.00 0.00
1:53 am 01:53 Clear 68 20 47 8.3 47 47 SE 10 17 30.04 1017 10 16 0.00 0.00
2:53 am 02:53 Clear 67 19.4 48 8.9 51 51 SSE 9 15 30.06 1018 10 16 0.00 0.00
3:53 am 03:53 Clear 65 18.3 49 9.4 56 56 SSE 9 15 30.07 1018 10 16 0.00 0.00
4:53 am 04:53 Partly Cloudy 65 18.3 50 10 59 59 SSE 8 13 30.07 1018 10 16 0.00 0.00
5:53 am 05:53 Mostly Cloudy 66 18.9 51 10.6 59 59 SSE 8 13 30.06 1018 10 16 0.00 0.00
6:53 am 06:53 Partly Cloudy 64 17.8 53 11.7 68 68 SSE 8 13 30.06 1018 10 16 0.00 0.00
7:53 am 07:53 Mostly Cloudy 65 18.3 54 12.2 68 68 undefined N/A 30.04 1017 10 16 0.00 0.00
8:53 am 08:53 Cloudy 67 19.4 55 12.8 66 66 SSW 14 22 30.05 1018 10 16 0.00 0.00
9:53 am 09:53 Mostly Cloudy 68 20 57 13.9 68 68 S 6 9 30.03 1017 10 16 0.00 0.03
10:53 am 10:53 Partly Cloudy 70 21.1 55 12.8 59 59 SSW 14 22 30.02 1017 10 16 0.00 0.00
11:53 am 11:53 Sunny 70 21.1 58 14.4 66 66 S 13 20 30.02 1017 10 16 0.00 0.00
12:53 pm 12:53 Cloudy 69 20.6 60 15.6 73 73 SSE 12 19 29.99 1016 10 16 0.00 0.03
1:53 pm 13:53 Sunny 73 22.8 62 16.7 69 69 SE 13 20 29.96 1014 10 16 0.00 0.00
2:53 pm 14:53 Sunny 78 25.6 57 13.9 48 48 SSE 21 33 29.92 1013 10 16 0.00 0.00
3:53 pm 15:53 Sunny 81 27.2 56 13.3 42 42 S 15 24 29.90 1013 10 16 0.00 0.00
4:53 pm 16:53 Sunny 82 27.8 56 13.3 41 41 S 14 22 29.88 1012 10 16 0.00 0.00
5:53 pm 17:53 Sunny 82 27.8 56 13.3 41 41 undefined N/A 29.87 1011 10 16 0.00 0.00
6:53 pm 18:53 Sunny 81 27.2 56 13.3 42 42 S 16 26 29.86 1011 10 16 0.00 0.00
7:53 pm 19:53 Sunny 79 26.1 56 13.3 45 45 SSE 12 19 29.86 1011 10 16 0.00 0.00
8:53 pm 20:53 Sunny 76 24.4 57 13.9 52 52 SSE 9 15 29.86 1011 10 16 0.00 0.00
9:53 pm 21:53 Clear 73 22.8 58 14.4 59 59 SSE 8 13 29.87 1012 10 16 0.00 0.00
10:53 pm 22:53 Clear 70 21.1 59 15 68 68 SSE 9 15 29.88 1012 10 16 0.00 0.00
11:53 pm 23:53 Clear 68 20 57 13.9 68 68 SSE 12 19 29.88 1012 10 16 0.00 0.00

Powered by AerisWeather